Powrót do katalogu

GEESAT 3-01

AktywnyŁącznośćLEO
NORAD 61011·PAYLOAD·🇨🇳 China

Wystrzelony Sep 5, 2024 z Taiyuan Satellite Launch Center

Loading…

Następne Przeloty (najbliższe 24 godziny)

TLE

ŚwieżeSource: Space-Track

Epoka: Sep 14, 2026, 21:05 UTC

1 61011U 24159A   26257.87851815  .00001562  00000-0  21025-3 0  9992
2 61011  50.0015  26.9842 0002735 227.0235 133.0475 14.84475783110007

Śledź GEESAT 3-01 w czasie rzeczywistym z AllMySat

Download on the App Store